Change the Weather History Date:

Sunday, March 16, 2014

  Actual Average (KAND) Record (KAND)
Temperature  
Mean Temperature 52 °F -  
Max Temperature 57 °F 63 °F 84 °F (2015)
Min Temperature 46 °F 42 °F 22 °F (1949)
Degree Days  
Heating Degree Days 12    
Growing Degree Days 2 (Base 50)    
Moisture  
Dew Point 50 °F    
Average Humidity 90    
Maximum Humidity 97    
Minimum Humidity 58    
Precipitation  
Precipitation 1.01 in - - ()
Sea Level Pressure  
Sea Level Pressure 29.85 in    
Wind  
Wind Speed 5 mph (ENE)    
Max Wind Speed 16 mph    
Max Gust Speed 22 mph    
Visibility 6 miles    
Events Rain    
Averages and records for this station are not official NWS values.
T = Trace of Precipitation, MM = Missing Value Source: NWS Daily Summary

Daily Weather History Graph

Daily Weather History Graph

Search for Another Location

Airport or City:

Trip Planner

Search our weather history database for the weather conditions in past years. The results will help you decide how hot, cold, wet, or windy it might be!

Date:

Astronomy

Mar. 16, 2014 Rise Set
Actual Time 7:37 AM EDT 7:37 PM EDT
Civil Twilight 7:12 AM EDT 8:02 PM EDT
Nautical Twilight 6:43 AM EDT 8:31 PM EDT
Astronomical Twilight 6:14 AM EDT 9:00 PM EDT
Moon 7:51 PM EDT (3/16) 7:21 AM EDT (3/16)
Length of Visible Light 12h 49m
Length of Day
11h 59m
Full, 100% of the Moon is Illuminated
Mar 16
Full
Mar 16
Full
Mar 23
Last Quarter
Mar 30
New
Apr 7
First Quarter

Hourly Weather History & Observations

Time (EDT) Temp. Dew Point Humidity Pressure Visibility Wind Dir Wind Speed Gust Speed Precip Events Conditions
12:56 AM 57.9 °F 43.0 °F 58% 30.03 in 10.0 mi South 4.6 mph - N/A   Clear
1:56 AM 54.0 °F 44.1 °F 69% 30.02 in 10.0 mi Calm Calm - N/A   Mostly Cloudy
2:56 AM 53.1 °F 44.1 °F 71% 30.01 in 10.0 mi Calm Calm - N/A   Scattered Clouds
3:56 AM 53.1 °F 44.1 °F 71% 29.99 in 10.0 mi Calm Calm - N/A   Mostly Cloudy
4:56 AM 57.9 °F 43.0 °F 58% 29.96 in 10.0 mi South 9.2 mph - N/A   Overcast
5:56 AM 54.0 °F 48.0 °F 80% 29.95 in 10.0 mi Calm Calm - 0.00 in Rain Light Rain
6:56 AM 53.1 °F 46.9 °F 80% 29.95 in 8.0 mi Calm Calm - 0.01 in Rain Light Rain
7:56 AM 51.1 °F 48.9 °F 92% 29.95 in 5.0 mi SE 3.5 mph - 0.09 in Rain Rain
8:56 AM 51.1 °F 48.9 °F 92% 29.95 in 2.5 mi ENE 3.5 mph - 0.08 in Rain Light Rain
9:28 AM 52.0 °F 50.0 °F 93% 29.94 in 3.0 mi East 5.8 mph - 0.04 in Rain Rain
9:56 AM 52.0 °F 50.0 °F 93% 29.94 in 4.0 mi East 3.5 mph - 0.09 in Rain Rain
10:26 AM 52.0 °F 50.0 °F 93% 29.94 in 2.5 mi NE 5.8 mph - 0.07 in Rain Rain
10:56 AM 52.0 °F 50.0 °F 93% 29.92 in 2.0 mi NE 5.8 mph - 0.16 in Rain Rain
11:06 AM 52.0 °F 50.0 °F 93% 29.93 in 1.5 mi NE 3.5 mph - 0.05 in Rain Heavy Rain
11:25 AM 52.0 °F 51.1 °F 97% 29.94 in 2.0 mi ESE 5.8 mph - 0.14 in Rain Rain
11:32 AM 52.0 °F 50.0 °F 93% 29.93 in 2.0 mi ESE 5.8 mph - 0.16 in Rain Heavy Rain
11:42 AM 52.0 °F 51.1 °F 97% 29.95 in 1.2 mi SSE 6.9 mph - 0.23 in Rain Heavy Rain
11:56 AM 52.0 °F 50.0 °F 93% 29.96 in 1.2 mi Variable 6.9 mph - 0.34 in Rain Heavy Rain
12:09 PM 53.1 °F 51.1 °F 93% 29.96 in 2.0 mi SE 3.5 mph - 0.05 in Rain Heavy Rain
12:27 PM 53.1 °F 51.1 °F 93% 29.93 in 2.5 mi ESE 5.8 mph - 0.10 in Rain Rain
12:44 PM 53.1 °F 51.1 °F 93% 29.90 in 3.0 mi ESE 11.5 mph 17.3 mph 0.13 in Rain Light Rain
12:53 PM 53.6 °F 51.8 °F 94% 29.89 in 4.0 mi East 10.4 mph 17.3 mph 0.14 in Rain Light Rain
12:56 PM 53.1 °F 51.1 °F 93% 29.87 in 4.0 mi East 12.7 mph 19.6 mph 0.14 in Rain Light Rain
1:24 PM 54.0 °F 52.0 °F 93% 29.82 in 7.0 mi ESE 8.1 mph 21.9 mph 0.01 in Rain Light Rain
1:56 PM 54.0 °F 52.0 °F 93% 29.82 in 10.0 mi ESE 6.9 mph - 0.01 in Rain Light Rain
2:37 PM 55.0 °F 53.1 °F 93% 29.78 in 7.0 mi East 6.9 mph - 0.00 in   Overcast
2:56 PM 55.0 °F 54.0 °F 96% 29.77 in 6.0 mi East 4.6 mph - 0.00 in   Overcast
3:28 PM 57.0 °F 54.0 °F 89% 29.75 in 8.0 mi ESE 6.9 mph - N/A   Overcast
3:48 PM 57.0 °F 55.0 °F 93% 29.74 in 8.0 mi East 4.6 mph - N/A   Overcast
3:56 PM 57.0 °F 55.0 °F 93% 29.75 in 8.0 mi Calm Calm - N/A   Overcast
4:46 PM 57.9 °F 55.0 °F 90% 29.70 in 7.0 mi NE 4.6 mph - N/A   Overcast
4:54 PM 57.2 °F 55.4 °F 94% 29.71 in 6.0 mi North 4.6 mph - N/A   Overcast
4:56 PM 57.9 °F 55.0 °F 90% 29.71 in 6.0 mi North 4.6 mph - N/A   Overcast
5:08 PM 57.0 °F 55.0 °F 93% 29.72 in 6.0 mi North 4.6 mph - N/A   Overcast
5:56 PM 57.0 °F 55.0 °F 93% 29.70 in 4.0 mi NNE 5.8 mph - 0.01 in Rain Light Rain
6:04 PM 57.0 °F 55.0 °F 93% 29.71 in 4.0 mi NNE 8.1 mph - 0.00 in   Overcast
6:56 PM 57.0 °F 55.0 °F 93% 29.71 in 3.0 mi North 5.8 mph - 0.01 in Rain Light Rain
7:04 PM 55.9 °F 55.0 °F 97% 29.72 in 2.5 mi North 4.6 mph - 0.00 in   Overcast
7:16 PM 55.9 °F 54.0 °F 93% 29.73 in 4.0 mi North 5.8 mph - 0.00 in   Overcast
7:56 PM 54.0 °F 52.0 °F 93% 29.72 in 10.0 mi NNE 8.1 mph - 0.00 in Rain Light Rain
8:56 PM 53.1 °F 51.1 °F 93% 29.76 in 10.0 mi North 8.1 mph - 0.00 in   Overcast
9:19 PM 51.1 °F 50.0 °F 96% 29.78 in 2.0 mi NNE 8.1 mph - 0.02 in Rain Rain
9:45 PM 50.0 °F 48.0 °F 93% 29.78 in 4.0 mi North 10.4 mph - 0.05 in Rain Light Rain
9:56 PM 50.0 °F 48.0 °F 93% 29.78 in 6.0 mi North 11.5 mph - 0.05 in Rain Light Rain
10:05 PM 50.0 °F 48.0 °F 93% 29.78 in 6.0 mi North 8.1 mph - 0.00 in Rain Light Rain
10:56 PM 48.0 °F 46.0 °F 93% 29.78 in 5.0 mi NNE 6.9 mph - 0.01 in Rain Light Rain
11:12 PM 48.0 °F 46.0 °F 93% 29.78 in 8.0 mi North 8.1 mph - 0.00 in   Overcast
11:56 PM 46.9 °F 45.0 °F 93% 29.78 in 4.0 mi North 16.1 mph 19.6 mph 0.01 in Rain Light Rain